Location: Haliburton Scout Reserve
(45.0900°N, 78.3200°W)
Time: 10:59:12
(UTC-05:00)

N. Korean satellite - Pass Details

Date: 05 December 2021
Orbit: 447 x 491 km, 97.3° (Epoch: 23 January)

Event Time Altitude Azimuth Distance (km) Brightness Sun altitude
Rises 17:47:51 0° 214° (SW) 2,524 11.1 -13.0°
Reaches altitude 10° 17:51:13 10° 249° (WSW) 1,640 10.7 -13.5°
Maximum altitude 17:52:26 11° 270° (W) 1,550 10.3 -13.7°
Drops below altitude 10° 17:53:38 10° 290° (WNW) 1,636 10.0 -13.9°
Sets 17:56:59 0° 325° (NW) 2,506 10.4 -14.5°
